Location: Gro� Glienicke
(52.4675°N, 13.1079°E)
Time: 18:05:14
(UTC+00:00)

IRIDIUM 104 - Pass Details

Date: 06 July 2020
Orbit: 776 x 779 km, 86.4° (Epoch: 12 August)

Event Time Altitude Azimuth Distance (km) Brightness Sun altitude
Exits shadow 22:49:53 22° 188° (S) 1,648 5.4 -14.8°
Maximum altitude 22:53:19 82° 274° (W) 795 4.3 -14.9°
Drops below altitude 10° 22:58:36 10° 3° (N) 2,346 8.2 -14.9°
Sets 23:00:58 0° 5° (N) 3,278 9.4 -14.9°
